Regional Weather Roundup
Issued by NWS

Home | Current Version | Previous Version | Graphics & Text | Print | Product List | Glossary Off
Versions: 1 2 3 4 5 6 7 8 9 10 11 12 13 14 15 16 17 18 19 20 21 22 23 24 25 26 27 28 29 30 31 32 33 34 35 36 37 38 39 40 41 42 43 44 45 46 47 48 49 50

000
ASUS43 KMKX 311800
RWRWI

WISCONSIN REGIONAL WEATHER ROUNDUP
NATIONAL WEATHER SERVICE MILWAUKEE/SULLIVAN WI
100 PM CDT FRI OCT 31 2014

NOTE: "FAIR" INDICATES FEW OR NO CLOUDS BELOW 12,000 FEET WITH NO
SIGNIFICANT WEATHER AND/OR OBSTRUCTIONS TO VISIBILITY.

WIZ001-002-006>008-014>016-023>028-311900-
NORTHWEST WISCONSIN

CITY           SKY/WX    TMP DP  RH WIND       PRES   REMARKS
SUPERIOR ARPT  MOSUNNY   35  20  53 E5        30.56F WCI  31
ASHLAND        PTSUNNY   34  22  61 NE14      30.53F WCI  25
6HR MIN TEMP:  30; 6HR MAX TEMP:  38;

HAYWARD        MOSUNNY   35  18  49 NE12      30.50F WCI  27
6HR MIN TEMP:  26; 6HR MAX TEMP:  35;

SIREN          PTSUNNY   35  20  53 N10G16    30.54F WCI  27
CUMBERLAND     MOSUNNY   34  19  55 N9        30.51F WCI  26
RICE LAKE      MOSUNNY   36  20  51 N13G21    30.51F WCI  28
6HR MIN TEMP:  28; 6HR MAX TEMP:  37;

CHETEK         PTSUNNY   35  20  53 N10G18    30.50F WCI  27
LADYSMITH      CLOUDY    35  22  59 N16G23    30.48S WCI  25
6HR MIN TEMP:  28; 6HR MAX TEMP:  36;

EAU CLAIRE     PTSUNNY   39  19  44 N12       30.48S WCI  32
6HR MIN TEMP:  27; 6HR MAX TEMP:  40;

MENOMONIE      MOSUNNY   39  18  43 N14       30.50F WCI  30
6HR MIN TEMP:  28; 6HR MAX TEMP:  39;

NEW RICHMOND   SUNNY     37  17  45 NE8G17    30.53F WCI  30
OSCEOLA        SUNNY     36  19  51 NW5       30.56F WCI  32
6HR MIN TEMP:  26; 6HR MAX TEMP:  37;

$$

WIZ003>005-009-010-017-018-311900-
NORTH CENTRAL WISCONSIN

CITY           SKY/WX    TMP DP  RH WIND       PRES   REMARKS
MANITOWISH WTR PTSUNNY   30  23  76 N12G22    30.42F WCI  20
6HR MIN TEMP:  25; 6HR MAX TEMP:  30;

ARBOR VITAE    PTSUNNY   32  24  72 NE13G24   30.41F WCI  22
WOODRUFF       PTSUNNY   32  24  72 NE13G24   30.41F WCI  22
RHINELANDER    CLOUDY    31  21  66 NE10G22   30.40F WCI  22
6HR MIN TEMP:  26; 6HR MAX TEMP:  31; 6HR PCP: TRACE;

EAGLE RIVER    CLOUDY    31  20  61 N15G26    30.39F WCI  21
LAND O LAKES   LGT SNOW  30  24  78 N9        30.41S WCI  22
PHILLIPS       PTSUNNY   32  22  68 N13G24    30.43F WCI  22
6HR MIN TEMP:  26; 6HR MAX TEMP:  33;

TOMAHAWK       CLOUDY    31  22  68 CALM      30.42S
MEDFORD        PTSUNNY   35  19  51 N20G26    30.41F WCI  24
MERRILL        PTSUNNY   33  20  61 N15G25    30.41S WCI  22
$$

WIZ029-030-035-036-043>047-311900-
CENTRAL WISCONSIN

CITY           SKY/WX    TMP DP  RH WIND       PRES   REMARKS
WAUSAU         PTSUNNY   35  18  49 N20G26    30.39S WCI  24
6HR MIN TEMP:  29; 6HR MAX TEMP:  35;

MOSINEE        PTSUNNY   34  21  60 N16G29    30.40S WCI  23
MARSHFIELD     CLOUDY    37  20  50 N18G24    30.40F WCI  27
6HR MIN TEMP:  31; 6HR MAX TEMP:  37;

STEVENS POINT  CLOUDY    33  19  55 N20G25    30.39S WCI  21
WAUPACA        CLOUDY    38  19  46 N13G26    30.36S WCI  30
6HR MIN TEMP:  32; 6HR MAX TEMP:  39;

WAUTOMA        NOT AVBL
WISC RAPIDS    CLOUDY    37  19  48 N18G26    30.41S WCI  27
6HR MIN TEMP:  30; 6HR MAX TEMP:  38;

CAMP DOUGLAS   NOT AVBL
$$

WIZ011>013-019>022-031-037>040-048>050-311900-
NORTHEAST WISCONSIN

CITY           SKY/WX    TMP DP  RH WIND       PRES   REMARKS
ANTIGO         CLOUDY    31  20  64 N21G31    30.36S WCI  19
SHAWANO        PTSUNNY   40  21  47 N21G28    30.35F WCI  30
6HR MIN TEMP:  34; 6HR MAX TEMP:  40;

OCONTO         CLOUDY    36  21  55 N15G31    30.34R WCI  26
STURGEON BAY   CLOUDY    36  23  60 N26G39    30.30R WCI  23
6HR MIN TEMP:  34; 6HR MAX TEMP:  36;

GREEN BAY      PTSUNNY   39  21  48 N26G40    30.31F WCI  28
6HR MIN TEMP:  34; 6HR MAX TEMP:  39;

MANITOWOC      CLOUDY    36  25  64 N18G39    30.27R WCI  25
APPLETON       PTSUNNY   37  19  48 N29G40    30.32R WCI  25
CLINTONVILLE   CLOUDY    37  19  48 NE22G32   30.35S WCI  27
OSHKOSH        CLOUDY    38  22  52 N18G31    30.31S WCI  28
6HR MIN TEMP:  33; 6HR MAX TEMP:  38;

$$

WIZ032>034-041-042-053>061-311900-
SOUTHWEST WISCONSIN

CITY           SKY/WX    TMP DP  RH WIND       PRES   REMARKS
LA CROSSE      PTSUNNY   41  20  43 N16G24    30.45F
6HR MIN TEMP:  31; 6HR MAX TEMP:  42;

SPARTA         CLOUDY    37  20  48 N14G23    30.44F WCI  29
6HR MIN TEMP:  32; 6HR MAX TEMP:  37;

VIROQUA        CLOUDY    37  20  51 N17G25    30.40F WCI  27
BOSCOBEL       PTSUNNY   40  19  43 N18G26    30.41F WCI  31
6HR MIN TEMP:  34; 6HR MAX TEMP:  42;

PRAIRIE DU CHI MOSUNNY   39  18  42 N12G26    30.42S WCI  32
6HR MIN TEMP:  32; 6HR MAX TEMP:  39;

PLATTEVILLE    PTSUNNY   39  20  47 N21G32    30.36R WCI  29
$$

WIZ056-057-062-063-064-067-068-311900-
SOUTH CENTRAL WISCONSIN

CITY           SKY/WX    TMP DP  RH WIND       PRES   REMARKS
REEDSBURG      CLOUDY    35  20  54 N20G33    30.38R WCI  24
BARABOO/DELLS  CLOUDY    36  19  49 N13G25    30.37R WCI  27
LONE ROCK      NOT AVBL
MINERAL POINT  MOSUNNY   39  16  38 N22G32    30.33F WCI  29
MADISON        PTSUNNY   37  19  48 N25G32    30.34R WCI  25
6HR MIN TEMP:  33; 6HR MAX TEMP:  38;

MIDDLETON      CLOUDY    37  20  49 N18G28    30.34S WCI  27
WATERTOWN      CLOUDY    35  23  62 N20G35    30.28S WCI  24
MONROE         CLOUDY    36  23  60 N23G33    30.30S WCI  24
JANESVILLE     CLOUDY    37  19  48 N24G36    30.28R WCI  26
$$

WIZ051-052-058>065-066-070>072-311900-
SOUTHEAST WISCONSIN

CITY           SKY/WX    TMP DP  RH WIND       PRES   REMARKS
MILWAUKEE      CLOUDY    38  23  55 N31G44    30.21S WCI  25
6HR MIN TEMP:  35; 6HR MAX TEMP:  38; 6HR PCP: TRACE;

WAUKESHA       CLOUDY    34  21  60 N24G32    30.25S WCI  21
MILWAUKEE/TIMM CLOUDY    37  21  52 N25G41    30.24R WCI  26
RACINE         CLOUDY    38  25  59 N28G44    30.21R WCI  26
6HR MIN TEMP:  35; 6HR MAX TEMP:  38; 6HR PCP:  0.01;

BURLINGTON     CLOUDY    35  21  57 N20G35    30.23S WCI  24
KENOSHA        CLOUDY    39  25  57 N17G37    30.19S WCI  30
6HR MIN TEMP:  34; 6HR MAX TEMP:  39; 6HR PCP:  0.02;

FOND DU LAC    CLOUDY    38  21  50 N22G37    30.32R WCI  27
6HR MIN TEMP:  34; 6HR MAX TEMP:  38;

SHEBOYGAN      CLOUDY    37  24  59 N22G37    30.26R WCI  26
6HR MIN TEMP:  33; 6HR MAX TEMP:  37; 6HR PCP: TRACE;

WEST BEND      CLOUDY    34  23  64 N23G32    30.25S WCI  22
JUNEAU         CLOUDY    36  20  53 N23G32    30.30R WCI  24
$$

LSZ147-162-311900-
LAKE SUPERIOR

STATION/POSITION TIME  TEMP    WIND        PRES    WAVE
                       AIR SEA DIR/SP/G            HT/PER
                 (UTC) (F)     (DEG/KT/KT) (MB)    (FT/S)
W MID LAKE BUOY  1650   33 43  350/ 14/ 17 1034.3R   6/ 8
DEVILS ISLAND    1700   33      20/ 12/ 16 1035.3F
PORT WING        1740   35      20/  8/ 12 1034.2F
SAXON HARBOR     1740   36      10/ 17/ 20 1032.8F
$$

LMZ867-665-643>646-311900-
LAKE MICHIGAN

STATION/POSITION TIME  TEMP    WIND        PRES    WAVE
                       AIR SEA DIR/SP/G            HT/PER
                 (UTC) (F)     (DEG/KT/KT) (MB)    (FT/S)
CHAMBERS ISLAND  1700   38     340/ 28/ 37 1025.7R
N MID LAKE BUOY  1550   36 49   10/ 33/ 39 1023.6R   9/ 7
NORTHPORT PIER   1712   37     350/ 28/ 36 1025.7S
KEWAUNEE LAKESHO 1700   36      10/ 21/ 28 1024.3R
SHEBOYGAN LAKESH 1700   37 48  360/ 37/ 42 1024.8R
PORT WASHINGTON  1725   38     350/ 13/ 26 1024.4R
ATWATER BUOY     1700   40     360/ 31     1023.3R
MILWAUKEE LAKESH 1700   38     340/ 21/ 30   N/A
S MID LAKE BUOY  1650   41 50  350/ 37/ 47 1017.8R  19/11
KENOSHA   LAKESH 1700   38     340/ 32/ 41 1020.7R
$$

TC  - TEMPERATURE IN CELSIUS
VSB - VISIBILITY IN STATUTE MILES
WCI - WIND CHILL INDEX
HX  - HEAT INDEX




USA.gov is the U.S. government's official web portal to all federal, state and local government web resources and services.